www.pogodaiklimat.ru

Погода и климат >> Архив погоды >> Норвегия >> Маяк Skrova


ПОГОДА на Маяке Skrova

  • Прогноз погоды на Маяке Skrova
  • Монитор погоды на Маяке Skrova

АРХИВ ПОГОДЫ на Маяке Skrova

Время (UTC), дата Ветер
(напр.,м/с)
 
Видим.   Явления Облачность Т
(С)
Тd
(С)
f
(%)
Тe
(С)
Тes
(С)
Комфортность P
(гПа)
Po
(гПа)
Тmin
(С)
Tmax
(С)
R
(мм)
R24
(мм)
S
(см)
07 11.02 СЗ 12
{16}
н/о н/о +0.5 -0.1 96 -8 -8 988.8 987.4
08 11.02 СЗ 10
{16}
н/о н/о +2.7 -4.0 61 -4 -4 989.9 988.6
09 11.02 СЗ 12
{17}
н/о н/о +2.5 -4.7 59 -5 -5 990.8 989.5
10 11.02 СЗ 11
{15}
н/о н/о +2.7 -4.9 57 -4 -4 992.0 990.7
11 11.02 СЗ 9
{13}
н/о н/о +0.9 -1.6 83 -7 -7 993.6 992.2
12 11.02 З 9
{17}
>70 км {ливн. осадки} 10/10 300 м
[Cu Sc]
+0.1 -2.1 85 -8 -8 994.4 993.0
13 11.02 З 7
{10}
н/о н/о +1.7 -4.6 63 -4 -4 995.0 993.6
14 11.02 З 8
{13}
н/о н/о +1.3 -4.1 67 -5 -5 995.8 994.4
15 11.02 З 9
{11}
н/о н/о +1.4 -6.1 57 -5 -5 996.2 994.8
16 11.02 ЮЗ 12
{13}
н/о н/о +1.3 -5.6 60 -7 -7 996.5 995.1
17 11.02 ЮЗ 10
{15}
н/о н/о +0.8 -4.0 70 -7 -7 997.1 995.7
18 11.02 ЮЗ 9
{15}
>70 км {ливн. осадки} 5/5 600 м
[Cu Sc]
+0.9 -2.7 77 -7 -7 997.5 996.1 -0.2 +3.1
19 11.02 ЮЗ 10
{13}
н/о н/о +0.8 -3.1 75 -7 -7 997.7 996.3
20 11.02
{15}
н/о н/о 0.0 -0.5 96 998.0 996.6
21 11.02 ЮЗ 10
{13}
н/о н/о +0.5 -0.1 96 -8 -8 998.3 996.9
22 11.02 З 10
{15}
н/о н/о +1.8 -4.5 63 -5 -5 998.9 997.5
23 11.02 З 11
{16}
н/о н/о +1.7 -5.2 60 -6 -6 999.4 998.0
00 12.02 З 11
{16}
н/о н/о +1.5 -5.2 61 -6 -6 1000.0 998.6
01 12.02 З 14
{17}
н/о н/о +1.2 -5.2 62 -7 -7 1000.1 998.7
02 12.02 З 9
{19}
н/о н/о +0.3 -5.9 63 -7 -7 1000.9 999.5
03 12.02 З 13
{18}
н/о н/о -0.1 -4.2 74 -9 -9 1000.9 999.5
04 12.02 З 14
{20}
н/о н/о +0.5 -3.9 72 -8 -8 1000.9 999.5
05 12.02 З 15
{19}
н/о н/о +0.2 -2.8 80 -9 -9 1001.4 1000.0
06 12.02 ЮЗ 14
{20}
10 км слаб. ливневой снег 10/10 300 м
[Cu Sc]
-0.6 -1.6 93 -10 -10 1001.5 1000.1 -0.9 +2.1
07 12.02 ЮЗ 16
{19}
н/о н/о -0.4 -1.0 96 -11 -11 1001.4 1000.0
08 12.02 ЮЗ 17
{21}
н/о н/о 0.0 -0.4 97 -10 -10 1001.4 1000.0
09 12.02 ЮЗ 17
{22}
н/о н/о -0.1 -0.3 99 -10 -10 1001.7 1000.3
10 12.02 ЮЗ 18
{21}
н/о н/о -0.4 -0.6 99 -11 -11 1002.4 1001.0
11 12.02 З 15
{22}
н/о н/о -0.2 -0.4 99 -10 -10 1003.4 1002.0
12 12.02 З 15
{22}
>70 км {ливн. осадки} 10/10 300 м
[Cu Sc]
+0.3 -2.7 80 -9 -9 1003.9 1002.5
13 12.02
{17}
н/о н/о +0.9 -4.3 68 1004.6 1003.2
14 12.02 З 12
{17}
н/о н/о +0.6 -5.0 66 -8 -8 1005.1 1003.7
15 12.02 З 7
{14}
н/о н/о +0.7 -8.5 50 -5 -5 1005.0 1003.6
16 12.02 З 8
{11}
н/о н/о +0.6 -7.8 53 -6 -6 1004.7 1003.3
17 12.02 ЮЗ 7
{10}
н/о н/о +0.2 -5.4 66 -6 -6 1004.3 1002.9
18 12.02 ЮЗ 5
{17}
>70 км 5/5 600 м
[Cu Sc]
-0.8 -3.5 82 -7 -7 1003.3 1001.9 -1.0 +1.2
19 12.02 ЮЗ 4
{6}
н/о н/о -0.4 -4.5 74 -6 -6 1002.4 1001.0
20 12.02 ЮЗ 1
{5}
н/о н/о -0.9 -5.3 72 -3 -3 1001.3 999.9
21 12.02 В 2
{3}
н/о н/о -3.0 -5.2 85 -7 -7 1000.6 999.2
22 12.02 СВ 3
{4}
н/о н/о -1.6 -4.7 79 -6 -6 999.6 998.2
23 12.02 В 4
{6}
н/о н/о -0.7 -5.3 71 -6 -6 998.2 996.8
00 13.02 СВ 6
{8}
н/о н/о -1.4 -5.6 73 -8 -8 996.7 995.3
01 13.02 В 6
{9}
н/о н/о -0.4 -6.4 64 -7 -7 995.5 994.1
02 13.02 В 9
{12}
н/о н/о -1.0 -6.8 65 -9 -9 994.3 992.9
03 13.02 СВ 8
{14}
н/о н/о -1.0 -7.4 62 -8 -8 993.1 991.7
04 13.02 СВ 13
{17}
н/о н/о -1.4 -6.3 69 -11 -11 992.0 990.6
05 13.02 СВ 14
{18}
н/о н/о -1.4 -7.2 65 -11 -11 991.3 989.9
06 13.02 СВ 11
{19}
>70 км {ливн. осадки} 10/10 600 м
[Cu Sc]
-1.2 -7.6 62 -10 -10 991.4 990.0 -3.6 0.0
07 13.02 СВ 12
{16}
н/о н/о -0.1 -7.0 60 -8 -8 991.5 990.1
08 13.02 СВ 12
{17}
н/о н/о -0.1 -6.2 63 -8 -8 992.1 990.7
09 13.02 СВ 11
{16}
н/о н/о +0.1 -5.5 66 -8 -8 993.0 991.6
10 13.02 СВ 7
{15}
н/о н/о -0.3 -4.7 72 -7 -7 994.6 993.2
11 13.02 СВ 5
{10}
н/о н/о +0.6 -5.0 66 -5 -5 996.2 994.8
12 13.02 С 4
{17}
>70 км {ливн. осадки} 10/0 2000 м
[As trans]
+0.5 -6.3 60 -4 -4 998.0 996.6
13 13.02 СЗ 5
{7}
н/о н/о +0.9 -6.4 58 -4 -4 999.8 998.4
14 13.02 З 5
{7}
н/о н/о +1.2 -6.8 55 -4 -4 1001.8 1000.4
15 13.02 З 4
{6}
н/о н/о +1.6 -6.2 56 -3 -3 1003.6 1002.2
16 13.02 ЮЗ 7
{8}
н/о н/о +2.1 -3.0 69 -4 -4 1004.9 1003.5
17 13.02 ЮЗ 7
{10}
н/о н/о +2.7 -2.6 68 -3 -3 1006.4 1005.0
18 13.02 ЮЗ 7
{10}
>70 км 8/8 600 м
[Cu Sc]
+3.1 -3.7 61 -3 -3 1007.1 1005.7 -1.2 +3.3
19 13.02 ЮЗ 6
{8}
н/о н/о +3.1 -3.0 64 -2 -2 1007.4 1006.0
20 13.02 ЮЗ 9
{13}
н/о н/о +2.4 -0.8 79 -5 -5 1007.4 1006.0
21 13.02 Ю 6
{10}
н/о н/о +2.2 -1.0 79 -4 -4 1006.9 1005.5
22 13.02 Ю 6
{9}
н/о н/о +2.3 -0.9 79 -4 -4 1006.2 1004.8
23 13.02 Ю 9
{12}
н/о н/о +1.7 +0.6 92 -6 -6 1005.4 1004.0
00 14.02 ЮВ 5
{13}
н/о н/о +2.5 +0.6 87 -3 -3 1004.8 1003.4
01 14.02 Ю 11
{13}
н/о н/о +3.1 +1.6 90 -4 -4 1003.4 1002.0
02 14.02 Ю 9
{14}
н/о н/о +2.8 +1.2 89 -4 -4 1002.3 1000.9
03 14.02 ЮВ 7
{10}
н/о н/о +2.6 +1.1 90 -4 -4 1000.6 999.2
04 14.02 В 8
{11}
н/о н/о +2.1 +0.8 91 -5 -5 998.8 997.4
05 14.02 В 8
{11}
н/о н/о +1.6 +1.0 96 -6 -6 996.4 995.0
06 14.02 В 11
{16}
>70 км ливневой дождь со снегом 10/10 200 м
[Cu Sc]
+2.6 +2.3 98 -5 -5 992.8 991.4 +1.0 +4.2
07 14.02 Ю 12
{17}
н/о н/о +5.0 +4.7 98 -2 -2 989.9 988.6
08 14.02 Ю 16
{23}
н/о н/о +5.5 +5.4 99 -2 -2 988.5 987.2
09 14.02 Ю 15
{21}
н/о н/о +6.0 +3.7 85 -1 -1 987.4 986.1
10 14.02 ЮЗ 13
{21}
н/о н/о +5.6 +3.3 85 -1 -1 988.3 987.0
11 14.02 Ю 14
{19}
н/о н/о +5.4 +3.6 88 -2 -2 985.8 984.5
12 14.02 Ю 18
{29}
>70 км {ливн. осадки} 10/10 300 м
[Cu Sc]
+6.1 +3.3 82 -2 -2 984.7 983.4
13 14.02 ЮЗ 21
{27}
н/о н/о +6.0 +1.7 74 -2 -2 984.2 982.9
14 14.02 ЮЗ 19
{27}
н/о н/о +4.9 +1.4 78 -3 -3 984.3 983.0
15 14.02 ЮЗ 18
{24}
н/о н/о +4.2 +2.7 90 -4 -4 985.2 983.9
16 14.02 ЮЗ 18
{24}
н/о н/о +4.4 +2.1 85 -4 -4 986.1 984.8
17 14.02 ЮЗ 15
{22}
н/о н/о +4.5 +2.0 84 -3 -3 987.4 986.1
18 14.02 ЮЗ 14
{27}
>70 км {ливн. осадки} 10/10 600 м
[Cu Sc]
+4.0 +1.0 81 -4 -4 988.3 987.0 +2.0 +6.5
19 14.02 ЮЗ 16
{21}
н/о н/о +4.3 +1.3 81 -4 -4 988.9 987.6
20 14.02 З 16
{20}
н/о н/о +3.8 +0.7 80 -4 -4 989.8 988.5
21 14.02 З 17
{21}
н/о н/о +4.1 +1.2 81 -4 -4 990.4 989.1
22 14.02 ЮЗ 16
{25}
н/о н/о +4.0 +1.4 83 -4 -4 991.0 989.7
23 14.02 З 18
{24}
н/о н/о +4.1 +2.0 86 -4 -4 992.1 990.8
00 15.02 ЮЗ 19
{25}
н/о н/о +4.6 +2.1 84 -4 -4 993.4 992.1
01 15.02 З 20
{26}
н/о н/о +4.5 +2.0 84 -4 -4 994.9 993.6
02 15.02 З 15
{25}
н/о н/о +4.2 +2.1 86 -4 -4 996.9 995.6
03 15.02 З 12
{20}
н/о н/о +4.4 +1.9 84 -3 -3 998.1 996.8
04 15.02 ЮЗ 10
{14}
н/о н/о +4.2 +1.9 85 -3 -3 998.4 997.1
05 15.02 З 10
{13}
н/о н/о +3.8 +2.5 91 -3 -3 999.0 997.7
06 15.02 З 5
{26}
55 км слаб. ливневой дождь 10/10 300 м
[Cu Sc]
+4.6 +2.1 84 -0 -0 1000.8 999.5 +3.6 +5.2
07 15.02 З 6
{8}
н/о н/о +4.1 +1.7 84 -1 -1 1002.4 1001.0
08 15.02 З 5
{7}
н/о н/о +4.3 +1.7 83 -1 -1 1003.7 1002.3
09 15.02 ЮЗ 5
{7}
н/о н/о +4.0 +2.0 87 -1 -1 1004.2 1002.8
10 15.02 ЮЗ 7
{9}
н/о н/о +3.5 +2.0 90 -3 -3 1004.9 1003.5
11 15.02 ЮЗ 6
{8}
н/о н/о +3.0 +2.1 94 -3 -3 1005.2 1003.8
12 15.02 ЮЗ 5
{9}
>70 км {ливн. осадки} 10/10 300 м
[Cu Sc]
+2.8 +2.1 95 -3 -3 1005.6 1004.2
13 15.02 З 1
{5}
н/о н/о +2.6 +2.0 96 +1 +1 1005.7 1004.3
14 15.02 Ю 1
{3}
н/о н/о +2.9 +2.2 95 +1 +1 1005.5 1004.1
15 15.02
{2}
н/о н/о +2.5 +1.8 95 1004.9 1003.5
16 15.02 Ю 3
{5}
н/о н/о +3.8 +2.6 92 -0 -0 1003.9 1002.5
17 15.02 Ю 7
{9}
н/о н/о +3.3 +2.4 94 -3 -3 1002.7 1001.3
18 15.02
{9}
>70 км слаб. морось 10/10 200 м
[Cu Sc]
+2.7 +1.8 94 1001.6 1000.2 +1.7 +4.7
19 15.02 ЮВ 5
{9}
н/о н/о +2.0 +1.4 96 -4 -4 999.9 998.5
20 15.02 В 7
{10}
н/о н/о +0.9 +0.6 98 -6 -6 997.9 996.5
21 15.02 В 10
{14}
н/о н/о +1.5 +1.2 98 -6 -6 995.8 994.4
22 15.02 Ю 8
{14}
н/о н/о +5.2 +5.1 99 -1 -1 993.9 992.6
23 15.02 Ю 11
{14}
н/о н/о +5.9 +4.1 88 -1 -1 991.1 989.8
00 16.02 Ю 14
{18}
н/о н/о +5.9 +3.1 82 -1 -1 989.1 987.8
01 16.02 Ю 18
{24}
н/о н/о +5.7 +3.2 84 -2 -2 986.8 985.5
02 16.02 Ю 21
{28}
н/о н/о +5.5 +4.0 90 -3 -3 984.1 982.8
03 16.02 Ю 21
{27}
н/о н/о +6.2 +4.7 90 -2 -2 981.7 980.4
04 16.02 Ю 24
{35}
н/о н/о +5.5 +2.0 78 -3 -3 979.8 978.5
05 16.02 Ю 26
{41}
н/о н/о +4.5 +3.0 90 -5 -5 977.8 976.5
06 16.02 ЮЗ 26
{41}
55 км ливневой дождь 10/10 300 м
[Cu Sc]
+4.5 +2.2 85 -5 -5 978.1 976.8 +0.8 +7.0
07 16.02 ЮЗ 26
{36}
н/о н/о +4.2 +1.2 81 -5 -5 977.3 976.0
08 16.02 ЮЗ 26
{36}
н/о н/о +3.9 +1.8 86 -6 -6 975.6 974.3
09 16.02 ЮЗ 28
{36}
н/о н/о +4.2 +2.6 89 -6 -6 973.7 972.4
10 16.02 ЮЗ 24
{37}
н/о н/о +4.1 +2.5 89 -5 -5 973.1 971.8
11 16.02 ЮЗ 21
{32}
н/о н/о +4.4 +2.8 89 -5 -5 974.7 973.4
12 16.02 ЮЗ 17
{37}
>70 км {ливн. осадки} 10/10 300 м
[Cu Sc]
+4.2 +2.4 88 -4 -4 975.8 974.5
13 16.02 СЗ 20
{29}
н/о н/о +3.8 +1.0 82 -5 -5 980.0 978.7
14 16.02 З 20
{30}
н/о н/о +3.0 +0.1 81 -6 -6 985.3 984.0
15 16.02 СЗ 20
{31}
н/о н/о +2.4 +0.2 85 -7 -7 988.5 987.2
16 16.02 СЗ 19
{31}
н/о н/о +1.6 -0.3 87 -8 -8 992.1 990.7
17 16.02 СЗ 14
{26}
н/о н/о +2.0 -0.7 82 -7 -7 994.9 993.5
18 16.02 СЗ 13
{31}
>70 км {ливн. осадки} 10/10 300 м
[Cu Sc]
+3.5 -2.0 67 -4 -4 996.8 995.5 +1.5 +4.9
19 16.02 СЗ 14
{22}
н/о н/о +4.1 -4.3 54 -3 -3 998.7 997.4
20 16.02 СЗ 11
{22}
н/о н/о +3.7 -3.8 58 -3 -3 1000.6 999.2
21 16.02 СЗ 11
{16}
н/о н/о +4.0 -4.9 52 -2 -2 1001.8 1000.4
22 16.02 СЗ 11
{17}
н/о н/о +3.5 -3.3 61 -3 -3 1003.1 1001.7
23 16.02 СЗ 6
{15}
н/о н/о +1.0 -1.1 86 -5 -5 1005.3 1003.9
00 17.02 СЗ 9
{22}
н/о н/о +2.5 -2.4 70 -4 -4 1006.4 1005.0
01 17.02 СЗ 9
{14}
н/о н/о +2.8 -3.1 65 -4 -4 1007.6 1006.2
02 17.02 С 3
{10}
н/о н/о +1.1 -1.6 82 -3 -3 1009.1 1007.7
03 17.02 С 3
{10}
н/о н/о +2.5 -2.4 70 -1 -1 1010.1 1008.7
04 17.02 СЗ 7
{12}
н/о н/о +0.9 -1.0 87 -6 -6 1011.0 1009.6
05 17.02 З 3
{8}
н/о н/о +1.4 -1.8 79 -3 -3 1011.4 1010.0
06 17.02 СВ 2
{14}
>70 км {ливн. осадки} 6/6 1000 м
[Sc]
+0.2 -2.7 81 -3 -3 1011.9 1010.5 +0.2 +4.9
07 17.02 В 1
{2}
н/о н/о +0.8 -2.2 80 -1 -1 1012.7 1011.3
08 17.02 С 1
{3}
н/о н/о +1.5 -1.9 78 -0 -0 1013.3 1011.9
09 17.02 СЗ 1
{4}
н/о н/о +2.0 -1.4 78 0 0 1013.9 1012.5
10 17.02 С 1
{3}
н/о н/о +2.3 -1.5 76 +1 +1 1014.3 1012.9
11 17.02 Ю 5
{7}
н/о н/о +3.8 -1.9 66 -1 -1 1014.5 1013.1
12 17.02 ЮЗ 6
{8}
>70 км 5/5 1000 м
[Sc]
+3.9 -2.7 62 -1 -1 1014.4 1013.0
13 17.02 ЮЗ 9
{11}
н/о н/о +3.0 -0.8 76 -4 -4 1014.3 1012.9
14 17.02 ЮВ 1
{12}
н/о н/о +2.4 -2.3 71 +1 +1 1014.3 1012.9
15 17.02 Ю 9
{15}
н/о н/о +2.0 +0.7 91 -5 -5 1013.8 1012.4
16 17.02 Ю 7
{11}
н/о н/о +1.4 -0.2 89 -5 -5 1013.5 1012.1
17 17.02 ЮВ 3
{7}
н/о н/о +1.9 -0.3 85 -2 -2 1013.0 1011.6
18 17.02 Ю 6
{15}
>70 км {ливн. осадки} 10/10 600 м
[Cu Sc]
+2.4 -1.7 74 -3 -3 1012.1 1010.7 +0.1 +4.2
19 17.02 Ю 5
{10}
н/о н/о +2.5 -0.9 78 -3 -3 1011.4 1010.0
20 17.02 ЮВ 3
{8}
н/о н/о +2.2 -3.7 65 -2 -2 1010.7 1009.3
21 17.02 ЮВ 6
{7}
н/о н/о +2.4 -3.5 65 -3 -3 1010.0 1008.6
22 17.02 В 6
{7}
н/о н/о +2.4 -4.1 62 -3 -3 1009.6 1008.2
23 17.02 В 6
{8}
н/о н/о +2.4 -4.8 59 -3 -3 1008.7 1007.3
00 18.02 СВ 4
{10}
н/о н/о +1.7 -5.0 61 -3 -3 1007.6 1006.2
01 18.02 СВ 6
{10}
н/о н/о +1.5 -5.0 62 -4 -4 1006.3 1004.9
02 18.02 СВ 6
{9}
н/о н/о +1.3 -5.1 62 -5 -5 1005.2 1003.8
03 18.02 СВ 7
{10}
н/о н/о +1.4 -5.9 58 -5 -5 1003.8 1002.4
04 18.02 СВ 8 н/о н/о +1.3 -5.4 61 -5 -5 1002.5 1001.1
05 18.02 СВ 7
{11}
н/о н/о +1.5 -5.0 62 -5 -5 1001.0 999.6
06 18.02 СВ 6
{13}
>70 км 10/10 600 м
[Cu Sc]
+1.2 -5.0 63 -5 -5 999.7 998.3 +1.1 +2.7
07 18.02 В 7
{9}
н/о н/о -0.1 -1.4 91 -7 -7 998.8 997.4

 

Местоположение метеостанции Маяк Skrova (Норвегия): широта 68.15 долгота 14.65 высота над уровнем моря 11 м.

В архиве по умолчанию представлена погода на Маяке Skrova за последнюю неделю. Архивные данные за месяц целиком и за предыдущие месяцы, начиная с января 2011 года, Вы можете получить, выбрав интересующий диапазон дат из раскрывающегося списка и нажав кнопку "Ввод!".


*Определитесь, кто Вы:
робот инопланетянин человек

Внимание! Время в таблицах - всемирное. Для получения местного времени необходимо прибавить поправку, которая равна 1 ч.

Смотрите также архив погоды в соседних городах и на ближайших метеорологических станциях:

Погода в Сволваер аэропорту (Норвегия) (11 км)
Погода в Лекнесе (Норвегия) (43 км)
Погода в Стокмаркнес аэропорту (Норвегия) (50 км)
Погода в Бё (Норвегия) (52 км)
Погода на Маяке Rotvaer (Норвегия) (59 км)
Погода в Драге (Норвегия) (60 км)
Погода в Сортланне (Норвегия) (69 км)
Погода в Хеллигвере (Норвегия) (89 км)
Погода в Аэропорту Харстад/Нарвик (Норвегия) (92 км)
Погода в Аэропорту Vaeroy Heliport (Норвегия) (98 км)

Пояснения к столбцам:

Ветер - указаны скорость ветра в м/с - средняя за 10 мин, порывы в срок и между сроками (в фигурных скобках) и направление, откуда дует ветер: С - северный, СВ - северо-восточный, В - восточный, ЮВ - юго-восточный, Ю - южный, ЮЗ - юго-западный, З - западный, СЗ - северо-западный.
Видимость - горизонтальная дальность видимости в метрах или километрах. При видимости от 1 до 10 км при отсутствии осадков обычно наблюдается дымка, при ухудшении видимости до 1 км и менее - туман. В сухую погоду видимость может ухудшаться дымом, пылью или мглою.
Явления - указаны атмосферные явления, наблюдавшиеся в срок или в последний час перед сроком; фигурными скобками обозначены явления, наблюдавшиеся между сроками (за 1-3 часа до срока); квадратными скобками обозначены град или гололедные отложения с указанием их диаметра в мм.
Облачность - указаны через наклонную черту общая и нижняя облачность в баллах и высота нижней границы облаков в метрах; квадратными скобками обозначены формы облаков: Ci - перистые, Cs - перисто-слоистые, Cc - перисто-кучевые, Ac - высококучевые, As - высокослоистые, Sc - слоисто-кучевые, Ns - слоисто-дождевые, Cu - кучевые, Cb - кучево-дождевые. Подробнее классификацию облаков см. в Атласе облаков (PDF).
T - Температура воздуха - температура, измеренная на высоте 2 м над землей.
Td - Температура точки росы - температура, при понижении до которой содержащийся в воздухе водяной пар достигнет насыщения.
f - Относительная влажность воздуха - влажноcть воздуха, измеренная на высоте 2 м над землей.
Te - Эффективная температура - температура, которую ощущает одетый по сезону человек в тени. Характеристика душности погоды. При расчете учитывается влияние влажности воздуха и скорости ветра на теплоощущения человека.
Tes - Эффективная температура на солнце - температура, которую ощущает человек, с поправкой на солнечный нагрев. Характеристика знойности погоды. Зависит от высоты солнца над горизонтом, облачности и скорости ветра. Ночью, в пасмурную погоду, а также при ветре 12 м/с и более поправка равна нулю.
P - Атмосферное давление - приведенное к уровню моря атмосферное давление.
Po - Атмосферное давление - измеренное на уровне метеостанции атмосферное давление.
Tmin - Минимальная температура - минимум температуры воздуха на высоте 2 м над землей.
Tmax - Максимальная температура - максимум температуры воздуха на высоте 2 м над землей.
R - Количество осадков - Количество выпавших осадков за период времени, мм. При наведении курсора мыши на число - период времени, за который выпало указанное количество осадков.
R24 - Количество осадков - Количество выпавших осадков за 24 часа, мм.
S - Снежный покров - Высота снежного покрова, см. При наведении курсора мыши на число - состояние снежного покрова и степень покрытия местности в баллах.